Location: Endfield
(51.6667°N, 0.0667°W)
Time: 12:10:42
(UTC+00:00)

Cosmos 1633 Rocket - Pass Details

Date: 19 May 2024
Orbit: 605 x 619 km, 82.5° (Epoch: 14 June)

Event Time Altitude Azimuth Distance (km) Brightness Sun altitude
Rises 22:09:30 0° 356° (N) 2,906 7.9 -14.6°
Reaches altitude 10° 22:12:00 10° 8° (N) 1,997 6.5 -14.7°
Maximum altitude 22:15:52 29° 69° (ENE) 1,148 4.4 -15.0°
Enters shadow 22:18:13 18° 116° (ESE) 1,517 4.6 -15.1°
